Time,TemperatureF,DewpointF,PressureIn,WindDirection,WindDirectionDegrees,WindSpeedMPH,WindSpeedGustMPH,Humidity,HourlyPrecipIn,Conditions,Clouds,dailyrainin,SoftwareType,DateUTC
2013-01-27 00:05:00,43.8,26.8,30.19,NNE,20,2.0,14.0,51,0.00,,,0.00,Wunderground v.1.15,2013-01-27 06:05:00,
2013-01-27 00:10:00,44.1,27.1,30.18,ESE,104,3.0,3.0,51,0.00,,,0.00,Wunderground v.1.15,2013-01-27 06:10:00,
2013-01-27 00:20:00,44.2,27.2,30.18,ESE,107,2.0,2.0,51,0.00,,,0.00,Wunderground v.1.15,2013-01-27 06:20:00,
2013-01-27 00:25:00,44.3,26.8,30.18,NNE,23,2.0,3.0,50,0.00,,,0.00,Wunderground v.1.15,2013-01-27 06:25:00,
2013-01-27 00:30:00,44.2,26.7,30.18,East,101,3.0,14.0,50,0.00,,,0.00,Wunderground v.1.15,2013-01-27 06:30:00,
2013-01-27 00:35:00,44.1,27.1,30.18,NNE,18,3.0,14.0,51,0.00,,,0.00,Wunderground v.1.15,2013-01-27 06:35:00,
2013-01-27 00:40:00,44.1,27.1,30.17,ENE,69,3.0,14.0,51,0.00,,,0.00,Wunderground v.1.15,2013-01-27 06:40:00,
2013-01-27 00:50:00,44.1,27.6,30.18,ENE,77,4.0,14.0,52,0.00,,,0.00,Wunderground v.1.15,2013-01-27 06:50:00,
2013-01-27 01:00:00,44.0,28.0,30.18,North,352,3.0,14.0,53,0.00,,,0.00,Wunderground v.1.15,2013-01-27 07:00:00,
2013-01-27 01:14:00,43.7,28.6,30.17,NE,44,2.0,4.0,55,0.00,,,0.00,Wunderground v.1.15,2013-01-27 07:14:00,
2013-01-27 01:25:00,43.6,28.9,30.17,NNE,32,2.0,14.0,56,0.00,,,0.00,Wunderground v.1.15,2013-01-27 07:25:00,
2013-01-27 01:30:00,43.5,29.3,30.17,SE,142,2.0,14.0,57,0.00,,,0.00,Wunderground v.1.15,2013-01-27 07:30:00,
2013-01-27 01:35:00,43.4,29.6,30.17,SE,124,3.0,14.0,58,0.00,,,0.00,Wunderground v.1.15,2013-01-27 07:35:00,
2013-01-27 01:40:00,43.3,29.9,30.18,NE,35,3.0,3.0,59,0.00,,,0.00,Wunderground v.1.15,2013-01-27 07:40:00,
2013-01-27 01:50:00,42.9,30.4,30.17,NE,41,2.0,2.0,61,0.00,,,0.00,Wunderground v.1.15,2013-01-27 07:50:00,
2013-01-27 01:59:00,42.6,30.9,30.16,North,356,2.0,14.0,63,0.00,,,0.00,Wunderground v.1.15,2013-01-27 07:59:00,
2013-01-27 02:05:00,42.4,31.1,30.16,NE,50,2.0,14.0,64,0.00,,,0.00,Wunderground v.1.15,2013-01-27 08:05:00,
2013-01-27 02:10:00,42.1,31.2,30.16,ENE,73,3.0,14.0,65,0.00,,,0.00,Wunderground v.1.15,2013-01-27 08:10:00,
2013-01-27 02:15:00,41.8,31.6,30.16,East,79,3.0,14.0,67,0.00,,,0.00,Wunderground v.1.15,2013-01-27 08:15:00,
2013-01-27 02:20:00,41.5,32.1,30.16,SE,136,3.0,14.0,69,0.00,,,0.00,Wunderground v.1.15,2013-01-27 08:20:00,
2013-01-27 02:25:00,41.1,32.4,30.16,ENE,76,1.0,14.0,71,0.00,,,0.00,Wunderground v.1.15,2013-01-27 08:25:00,
2013-01-27 02:35:00,40.6,32.6,30.16,SSW,193,1.0,14.0,73,0.00,,,0.01,Wunderground v.1.15,2013-01-27 08:35:00,
2013-01-27 02:40:00,40.4,33.1,30.16,East,90,1.0,14.0,75,0.00,,,0.01,Wunderground v.1.15,2013-01-27 08:40:00,
2013-01-27 02:45:00,40.3,33.0,30.16,NNE,23,1.0,14.0,75,0.00,,,0.01,Wunderground v.1.15,2013-01-27 08:45:00,
2013-01-27 02:50:00,40.1,33.5,30.16,East,84,1.0,14.0,77,0.00,,,0.01,Wunderground v.1.15,2013-01-27 08:50:00,
2013-01-27 02:55:00,39.9,33.3,30.16,East,85,1.0,14.0,77,0.04,,,0.02,Wunderground v.1.15,2013-01-27 08:55:00,
2013-01-27 03:05:00,39.7,33.7,30.16,ESE,117,2.0,14.0,79,0.04,,,0.03,Wunderground v.1.15,2013-01-27 09:05:00,
2013-01-27 03:15:00,39.4,33.7,30.16,East,80,1.0,14.0,80,0.06,,,0.04,Wunderground v.1.15,2013-01-27 09:15:00,
2013-01-27 03:20:00,39.2,33.9,30.16,ESE,105,0.0,14.0,81,0.06,,,0.04,Wunderground v.1.15,2013-01-27 09:20:00,
2013-01-27 03:30:00,39.1,34.1,30.16,ENE,72,1.0,14.0,82,0.04,,,0.04,Wunderground v.1.15,2013-01-27 09:30:00,
2013-01-27 03:40:00,39.0,34.3,30.15,NNE,18,1.0,14.0,83,0.00,,,0.05,Wunderground v.1.15,2013-01-27 09:40:00,
2013-01-27 03:49:00,38.8,34.4,30.14,NE,41,2.0,2.0,84,0.04,,,0.05,Wunderground v.1.15,2013-01-27 09:49:00,
2013-01-27 04:00:00,38.6,34.5,30.13,NE,48,2.0,2.0,85,0.04,,,0.06,Wunderground v.1.15,2013-01-27 10:00:00,
2013-01-27 04:05:00,38.5,34.4,30.14,ESE,120,1.0,14.0,85,0.04,,,0.06,Wunderground v.1.15,2013-01-27 10:05:00,
2013-01-27 04:15:00,38.5,34.7,30.13,ESE,106,1.0,14.0,86,0.00,,,0.06,Wunderground v.1.15,2013-01-27 10:15:00,
2013-01-27 04:20:00,38.5,34.7,30.13,East,90,1.0,1.0,86,0.00,,,0.07,Wunderground v.1.15,2013-01-27 10:20:00,
2013-01-27 04:25:00,38.4,34.9,30.13,NNW,347,1.0,14.0,87,0.00,,,0.07,Wunderground v.1.15,2013-01-27 10:25:00,
2013-01-27 04:30:00,38.4,34.9,30.12,SSW,211,1.0,1.0,87,0.05,,,0.08,Wunderground v.1.15,2013-01-27 10:30:00,
2013-01-27 04:39:00,38.4,35.2,30.11,ENE,58,2.0,14.0,88,0.05,,,0.08,Wunderground v.1.15,2013-01-27 10:39:00,
2013-01-27 04:44:00,38.3,35.1,30.09,ENE,70,2.0,14.0,88,0.00,,,0.08,Wunderground v.1.15,2013-01-27 10:44:00,
2013-01-27 04:50:00,38.3,35.1,30.08,NW,323,3.0,3.0,88,0.00,,,0.09,Wunderground v.1.15,2013-01-27 10:50:00,
2013-01-27 04:55:00,38.4,35.2,30.07,NNE,18,4.0,4.0,88,0.00,,,0.09,Wunderground v.1.15,2013-01-27 10:55:00,
2013-01-27 05:00:00,38.4,35.2,30.07,NNW,342,5.0,5.0,88,0.00,,,0.09,Wunderground v.1.15,2013-01-27 11:00:00,
2013-01-27 05:10:00,38.5,35.5,30.08,North,353,4.0,4.0,89,0.00,,,0.09,Wunderground v.1.15,2013-01-27 11:10:00,
2013-01-27 05:15:00,38.6,35.4,30.09,SSE,160,3.0,14.0,88,0.00,,,0.09,Wunderground v.1.15,2013-01-27 11:15:00,
2013-01-27 05:20:00,38.8,35.6,30.08,NE,50,3.0,3.0,88,0.00,,,0.09,Wunderground v.1.15,2013-01-27 11:20:00,
2013-01-27 05:30:00,38.9,35.6,30.08,ESE,107,2.0,2.0,88,0.00,,,0.09,Wunderground v.1.15,2013-01-27 11:30:00,
2013-01-27 05:40:00,39.0,35.7,30.09,North,9,2.0,14.0,88,0.00,,,0.09,Wunderground v.1.15,2013-01-27 11:40:00,
2013-01-27 05:50:00,39.1,35.8,30.09,NNE,14,2.0,2.0,88,0.00,,,0.09,Wunderground v.1.15,2013-01-27 11:50:00,
2013-01-27 05:55:00,39.2,35.9,30.09,NE,44,2.0,14.0,88,0.00,,,0.09,Wunderground v.1.15,2013-01-27 11:55:00,
2013-01-27 06:05:00,39.3,36.0,30.09,NE,48,1.0,14.0,88,0.00,,,0.09,Wunderground v.1.15,2013-01-27 12:05:00,
2013-01-27 06:14:00,39.4,35.9,30.09,NNE,30,2.0,3.0,87,0.00,,,0.09,Wunderground v.1.15,2013-01-27 12:14:00,
2013-01-27 06:19:00,39.5,36.0,30.09,ESE,107,2.0,2.0,87,0.00,,,0.09,Wunderground v.1.15,2013-01-27 12:19:00,
2013-01-27 06:30:00,39.7,36.1,30.09,NNE,25,2.0,14.0,87,0.00,,,0.09,Wunderground v.1.15,2013-01-27 12:30:00,
2013-01-27 06:40:00,40.0,36.2,30.08,NNE,26,2.0,14.0,86,0.00,,,0.09,Wunderground v.1.15,2013-01-27 12:40:00,
2013-01-27 06:45:00,40.1,36.2,30.08,East,89,2.0,14.0,86,0.00,,,0.09,Wunderground v.1.15,2013-01-27 12:45:00,
2013-01-27 06:50:00,40.3,36.4,30.08,SE,134,2.0,14.0,86,0.00,,,0.09,Wunderground v.1.15,2013-01-27 12:50:00,
2013-01-27 06:55:00,40.4,36.2,30.08,NNE,23,2.0,14.0,85,0.00,,,0.09,Wunderground v.1.15,2013-01-27 12:55:00,
2013-01-27 07:00:00,40.6,36.4,30.09,NE,41,3.0,3.0,85,0.00,,,0.09,Wunderground v.1.15,2013-01-27 13:00:00,
2013-01-27 07:05:00,40.7,36.5,30.08,SE,133,3.0,14.0,85,0.00,,,0.09,Wunderground v.1.15,2013-01-27 13:05:00,
2013-01-27 07:14:00,40.9,36.7,30.08,ESE,120,2.0,4.0,85,0.00,,,0.09,Wunderground v.1.15,2013-01-27 13:14:00,
2013-01-27 07:25:00,41.2,37.0,30.08,East,91,2.0,14.0,85,0.00,,,0.09,Wunderground v.1.15,2013-01-27 13:25:00,
2013-01-27 07:35:00,41.7,37.2,30.08,North,352,3.0,14.0,84,0.00,,,0.09,Wunderground v.1.15,2013-01-27 13:35:00,
2013-01-27 07:45:00,42.0,37.5,30.07,East,82,3.0,7.0,84,0.00,,,0.09,Wunderground v.1.15,2013-01-27 13:45:00,
2013-01-27 07:55:00,42.3,37.8,30.08,NNE,25,3.0,14.0,84,0.00,,,0.09,Wunderground v.1.15,2013-01-27 13:55:00,
2013-01-27 08:00:00,42.5,37.7,30.07,ENE,65,3.0,14.0,83,0.00,,,0.09,Wunderground v.1.15,2013-01-27 14:00:00,
2013-01-27 08:10:00,42.7,37.9,30.07,East,84,4.0,4.0,83,0.00,,,0.09,Wunderground v.1.15,2013-01-27 14:10:00,
2013-01-27 08:20:00,42.9,38.1,30.07,ESE,113,3.0,14.0,83,0.00,,,0.09,Wunderground v.1.15,2013-01-27 14:20:00,
2013-01-27 08:30:00,43.1,38.3,30.07,SE,129,3.0,3.0,83,0.00,,,0.09,Wunderground v.1.15,2013-01-27 14:30:00,
2013-01-27 08:35:00,43.1,38.3,30.07,ESE,117,2.0,14.0,83,0.00,,,0.09,Wunderground v.1.15,2013-01-27 14:35:00,
2013-01-27 08:44:00,43.1,38.6,30.06,East,82,3.0,14.0,84,0.00,,,0.10,Wunderground v.1.15,2013-01-27 14:44:00,
2013-01-27 08:49:00,43.1,38.6,30.06,East,98,3.0,14.0,84,0.00,,,0.10,Wunderground v.1.15,2013-01-27 14:49:00,
2013-01-27 08:54:00,43.1,38.9,30.06,North,1,3.0,14.0,85,0.00,,,0.10,Wunderground v.1.15,2013-01-27 14:54:00,
2013-01-27 08:59:00,43.1,38.9,30.05,ESE,115,3.0,14.0,85,0.00,,,0.10,Wunderground v.1.15,2013-01-27 14:59:00,
2013-01-27 09:05:00,43.1,38.9,30.05,ENE,68,3.0,14.0,85,0.00,,,0.10,Wunderground v.1.15,2013-01-27 15:05:00,
2013-01-27 09:15:00,43.1,39.2,30.05,East,94,3.0,14.0,86,0.00,,,0.10,Wunderground v.1.15,2013-01-27 15:15:00,
2013-01-27 09:25:00,43.0,39.4,30.05,ESE,115,3.0,8.0,87,0.00,,,0.10,Wunderground v.1.15,2013-01-27 15:25:00,
2013-01-27 09:30:00,43.1,39.5,30.05,SE,132,4.0,14.0,87,0.00,,,0.10,Wunderground v.1.15,2013-01-27 15:30:00,
2013-01-27 09:40:00,43.4,40.1,30.04,SE,134,4.0,14.0,88,0.00,,,0.10,Wunderground v.1.15,2013-01-27 15:40:00,
2013-01-27 09:50:00,43.5,40.2,30.04,East,83,3.0,3.0,88,0.00,,,0.10,Wunderground v.1.15,2013-01-27 15:50:00,
2013-01-27 10:00:00,43.5,40.2,30.04,East,86,4.0,4.0,88,0.00,,,0.10,Wunderground v.1.15,2013-01-27 16:00:00,
2013-01-27 10:05:00,43.6,40.3,30.04,ESE,105,3.0,7.0,88,0.00,,,0.10,Wunderground v.1.15,2013-01-27 16:05:00,
2013-01-27 10:15:00,43.9,40.6,30.04,ENE,66,3.0,14.0,88,0.00,,,0.10,Wunderground v.1.15,2013-01-27 16:15:00,
2013-01-27 10:25:00,44.2,40.9,30.04,SSE,153,3.0,14.0,88,0.00,,,0.10,Wunderground v.1.15,2013-01-27 16:25:00,
2013-01-27 10:34:00,44.5,41.2,30.04,SE,131,3.0,14.0,88,0.00,,,0.10,Wunderground v.1.15,2013-01-27 16:34:00,
2013-01-27 10:39:00,44.6,41.3,30.04,ENE,73,3.0,3.0,88,0.00,,,0.10,Wunderground v.1.15,2013-01-27 16:39:00,
2013-01-27 10:45:00,44.8,41.5,30.04,East,91,3.0,14.0,88,0.00,,,0.10,Wunderground v.1.15,2013-01-27 16:45:00,
2013-01-27 10:50:00,44.9,41.9,30.04,East,93,3.0,14.0,89,0.00,,,0.10,Wunderground v.1.15,2013-01-27 16:50:00,
2013-01-27 10:55:00,45.1,41.8,30.03,NNE,25,3.0,14.0,88,0.00,,,0.10,Wunderground v.1.15,2013-01-27 16:55:00,
2013-01-27 11:05:00,45.4,42.1,30.02,NNE,20,4.0,14.0,88,0.00,,,0.10,Wunderground v.1.15,2013-01-27 17:05:00,
2013-01-27 11:10:00,45.5,42.2,30.02,ESE,121,4.0,14.0,88,0.00,,,0.11,Wunderground v.1.15,2013-01-27 17:10:00,
2013-01-27 11:19:00,45.9,42.5,30.01,ENE,78,4.0,4.0,88,0.00,,,0.11,Wunderground v.1.15,2013-01-27 17:19:00,
2013-01-27 11:30:00,46.4,43.3,30.01,East,84,3.0,14.0,89,0.00,,,0.11,Wunderground v.1.15,2013-01-27 17:30:00,
2013-01-27 11:35:00,46.8,43.7,30.00,ESE,107,4.0,14.0,89,0.00,,,0.11,Wunderground v.1.15,2013-01-27 17:35:00,
2013-01-27 11:40:00,47.2,44.1,30.00,ESE,113,5.0,5.0,89,0.00,,,0.11,Wunderground v.1.15,2013-01-27 17:40:00,
2013-01-27 11:50:00,47.8,44.4,30.00,ESE,108,6.0,6.0,88,0.00,,,0.11,Wunderground v.1.15,2013-01-27 17:50:00,
2013-01-27 11:55:00,47.9,44.2,29.99,ESE,117,6.0,7.0,87,0.00,,,0.11,Wunderground v.1.15,2013-01-27 17:55:00,
2013-01-27 12:05:00,48.5,45.1,29.98,East,88,6.0,14.0,88,0.00,,,0.11,Wunderground v.1.15,2013-01-27 18:05:00,
2013-01-27 12:10:00,48.8,45.1,29.98,ESE,114,6.0,14.0,87,0.00,,,0.11,Wunderground v.1.15,2013-01-27 18:10:00,
2013-01-27 12:19:00,49.2,45.2,29.97,East,91,6.0,14.0,86,0.00,,,0.11,Wunderground v.1.15,2013-01-27 18:19:00,
2013-01-27 12:24:00,49.4,45.4,29.97,ESE,109,7.0,14.0,86,0.00,,,0.11,Wunderground v.1.15,2013-01-27 18:24:00,
2013-01-27 12:30:00,49.5,45.2,29.97,ESE,117,6.0,14.0,85,0.00,,,0.11,Wunderground v.1.15,2013-01-27 18:30:00,
2013-01-27 12:35:00,49.5,45.2,29.97,ESE,103,6.0,14.0,85,0.00,,,0.11,Wunderground v.1.15,2013-01-27 18:35:00,
2013-01-27 12:45:00,49.7,45.4,29.95,ESE,105,6.0,14.0,85,0.00,,,0.11,Wunderground v.1.15,2013-01-27 18:45:00,
2013-01-27 12:55:00,49.8,45.2,29.94,SE,138,6.0,14.0,84,0.00,,,0.11,Wunderground v.1.15,2013-01-27 18:55:00,
2013-01-27 13:00:00,49.9,45.3,29.94,East,86,6.0,14.0,84,0.00,,,0.11,Wunderground v.1.15,2013-01-27 19:00:00,
2013-01-27 13:09:00,50.3,45.6,29.94,ESE,111,6.0,14.0,84,0.00,,,0.11,Wunderground v.1.15,2013-01-27 19:09:00,
2013-01-27 13:14:00,50.5,45.8,29.94,East,100,5.0,14.0,84,0.00,,,0.11,Wunderground v.1.15,2013-01-27 19:14:00,
2013-01-27 13:20:00,50.6,45.6,29.93,ESE,108,5.0,5.0,83,0.00,,,0.11,Wunderground v.1.15,2013-01-27 19:20:00,
2013-01-27 13:25:00,50.8,45.8,29.93,ESE,108,4.0,6.0,83,0.00,,,0.11,Wunderground v.1.15,2013-01-27 19:25:00,
2013-01-27 13:30:00,50.9,45.9,29.93,East,98,4.0,14.0,83,0.00,,,0.11,Wunderground v.1.15,2013-01-27 19:30:00,
2013-01-27 13:35:00,51.3,46.0,29.93,ESE,108,5.0,14.0,82,0.00,,,0.11,Wunderground v.1.15,2013-01-27 19:35:00,
2013-01-27 13:40:00,51.6,46.3,29.92,East,98,5.0,14.0,82,0.00,,,0.11,Wunderground v.1.15,2013-01-27 19:40:00,
2013-01-27 13:45:00,52.0,46.3,29.92,ESE,113,5.0,14.0,81,0.00,,,0.11,Wunderground v.1.15,2013-01-27 19:45:00,
2013-01-27 13:55:00,52.6,46.6,29.91,ESE,103,4.0,14.0,80,0.00,,,0.11,Wunderground v.1.15,2013-01-27 19:55:00,
2013-01-27 14:00:00,52.8,46.8,29.90,ESE,111,4.0,14.0,80,0.00,,,0.11,Wunderground v.1.15,2013-01-27 20:00:00,
2013-01-27 14:05:00,53.1,47.1,29.90,ESE,120,4.0,14.0,80,0.00,,,0.11,Wunderground v.1.15,2013-01-27 20:05:00,
2013-01-27 14:14:00,53.4,47.0,29.90,ENE,74,5.0,14.0,79,0.00,,,0.11,Wunderground v.1.15,2013-01-27 20:14:00,
2013-01-27 14:19:00,53.5,47.1,29.90,East,100,4.0,4.0,79,0.00,,,0.11,Wunderground v.1.15,2013-01-27 20:19:00,
2013-01-27 14:25:00,53.6,47.6,29.90,ENE,63,3.0,14.0,80,0.00,,,0.11,Wunderground v.1.15,2013-01-27 20:25:00,
2013-01-27 14:35:00,53.9,47.5,29.90,ESE,110,4.0,10.0,79,0.00,,,0.11,Wunderground v.1.15,2013-01-27 20:35:00,
2013-01-27 14:40:00,54.0,47.6,29.90,East,94,4.0,4.0,79,0.00,,,0.11,Wunderground v.1.15,2013-01-27 20:40:00,
2013-01-27 14:45:00,54.3,47.9,29.90,ESE,110,3.0,14.0,79,0.00,,,0.11,Wunderground v.1.15,2013-01-27 20:45:00,
2013-01-27 14:50:00,54.6,47.9,29.89,ESE,107,2.0,2.0,78,0.00,,,0.11,Wunderground v.1.15,2013-01-27 20:50:00,
2013-01-27 15:00:00,55.4,48.3,29.89,East,84,3.0,14.0,77,0.00,,,0.11,Wunderground v.1.15,2013-01-27 21:00:00,
2013-01-27 15:05:00,55.6,48.5,29.89,ENE,73,4.0,14.0,77,0.00,,,0.11,Wunderground v.1.15,2013-01-27 21:05:00,
2013-01-27 15:10:00,55.7,48.6,29.89,ESE,113,4.0,14.0,77,0.00,,,0.11,Wunderground v.1.15,2013-01-27 21:10:00,
2013-01-27 15:15:00,55.4,48.7,29.89,ESE,113,5.0,14.0,78,0.00,,,0.11,Wunderground v.1.15,2013-01-27 21:15:00,
2013-01-27 15:20:00,55.2,48.8,29.88,ESE,110,4.0,14.0,79,0.00,,,0.11,Wunderground v.1.15,2013-01-27 21:20:00,
2013-01-27 15:25:00,55.0,48.9,29.88,ESE,111,5.0,14.0,80,0.00,,,0.11,Wunderground v.1.15,2013-01-27 21:25:00,
2013-01-27 15:30:00,54.9,49.2,29.88,ESE,107,6.0,14.0,81,0.00,,,0.11,Wunderground v.1.15,2013-01-27 21:30:00,
2013-01-27 15:35:00,55.3,49.6,29.89,ESE,115,5.0,14.0,81,0.00,,,0.11,Wunderground v.1.15,2013-01-27 21:35:00,
2013-01-27 15:40:00,55.7,49.6,29.89,South,191,5.0,5.0,80,0.00,,,0.11,Wunderground v.1.15,2013-01-27 21:40:00,
2013-01-27 15:45:00,55.9,49.5,29.89,ESE,115,6.0,13.0,79,0.00,,,0.11,Wunderground v.1.15,2013-01-27 21:45:00,
2013-01-27 15:50:00,56.5,49.7,29.88,SE,133,6.0,14.0,78,0.00,,,0.11,Wunderground v.1.15,2013-01-27 21:50:00,
2013-01-27 16:00:00,57.6,50.1,29.89,East,83,6.0,6.0,76,0.00,,,0.11,Wunderground v.1.15,2013-01-27 22:00:00,
2013-01-27 16:05:00,57.7,49.8,29.88,NE,51,3.0,14.0,75,0.00,,,0.11,Wunderground v.1.15,2013-01-27 22:05:00,
2013-01-27 16:10:00,57.3,49.4,29.88,ENE,59,3.0,14.0,75,0.00,,,0.11,Wunderground v.1.15,2013-01-27 22:10:00,
2013-01-27 16:15:00,57.1,49.6,29.89,SE,128,3.0,14.0,76,0.00,,,0.11,Wunderground v.1.15,2013-01-27 22:15:00,
2013-01-27 16:19:00,56.9,49.4,29.88,ESE,105,4.0,4.0,76,0.00,,,0.11,Wunderground v.1.15,2013-01-27 22:19:00,
2013-01-27 16:24:00,56.5,49.4,29.88,ESE,117,4.0,14.0,77,0.00,,,0.11,Wunderground v.1.15,2013-01-27 22:24:00,
2013-01-27 16:30:00,56.1,49.0,29.88,ESE,111,3.0,3.0,77,0.00,,,0.11,Wunderground v.1.15,2013-01-27 22:30:00,
2013-01-27 16:35:00,55.8,49.0,29.88,East,87,3.0,14.0,78,0.00,,,0.11,Wunderground v.1.15,2013-01-27 22:35:00,
2013-01-27 16:40:00,55.5,49.1,29.88,East,98,3.0,14.0,79,0.00,,,0.11,Wunderground v.1.15,2013-01-27 22:40:00,
2013-01-27 16:45:00,55.3,49.2,29.88,ESE,113,4.0,14.0,80,0.00,,,0.11,Wunderground v.1.15,2013-01-27 22:45:00,
2013-01-27 16:50:00,55.1,49.0,29.88,East,101,4.0,4.0,80,0.00,,,0.11,Wunderground v.1.15,2013-01-27 22:50:00,
2013-01-27 16:55:00,55.0,49.3,29.88,ESE,117,4.0,14.0,81,0.00,,,0.11,Wunderground v.1.15,2013-01-27 22:55:00,
2013-01-27 17:05:00,54.8,49.4,29.88,ESE,103,4.0,14.0,82,0.00,,,0.11,Wunderground v.1.15,2013-01-27 23:05:00,
2013-01-27 17:10:00,54.6,49.2,29.88,ESE,114,4.0,14.0,82,0.00,,,0.11,Wunderground v.1.15,2013-01-27 23:10:00,
2013-01-27 17:15:00,54.4,49.3,29.88,SE,124,3.0,14.0,83,0.00,,,0.11,Wunderground v.1.15,2013-01-27 23:15:00,
2013-01-27 17:20:00,54.3,49.2,29.88,East,101,3.0,14.0,83,0.00,,,0.11,Wunderground v.1.15,2013-01-27 23:20:00,
2013-01-27 17:25:00,54.1,49.4,29.88,ESE,112,4.0,14.0,84,0.00,,,0.11,Wunderground v.1.15,2013-01-27 23:25:00,
2013-01-27 17:30:00,54.0,49.3,29.88,ESE,120,4.0,4.0,84,0.00,,,0.11,Wunderground v.1.15,2013-01-27 23:30:00,
2013-01-27 17:35:00,53.8,49.1,29.88,East,94,3.0,14.0,84,0.00,,,0.11,Wunderground v.1.15,2013-01-27 23:35:00,
2013-01-27 17:40:00,53.6,49.2,29.88,ENE,77,2.0,2.0,85,0.00,,,0.11,Wunderground v.1.15,2013-01-27 23:40:00,
2013-01-27 17:45:00,53.4,49.3,29.89,ESE,117,3.0,4.0,86,0.00,,,0.11,Wunderground v.1.15,2013-01-27 23:45:00,
2013-01-27 17:50:00,53.4,49.3,29.89,SE,135,3.0,14.0,86,0.00,,,0.11,Wunderground v.1.15,2013-01-27 23:50:00,
2013-01-27 18:00:00,53.5,49.4,29.89,ESE,122,3.0,14.0,86,0.00,,,0.11,Wunderground v.1.15,2013-01-28 00:00:00,
2013-01-27 18:05:00,53.5,49.4,29.89,NE,53,3.0,14.0,86,0.00,,,0.11,Wunderground v.1.15,2013-01-28 00:05:00,
2013-01-27 18:10:00,53.6,49.8,29.89,SE,128,3.0,14.0,87,0.00,,,0.11,Wunderground v.1.15,2013-01-28 00:10:00,
2013-01-27 18:15:00,53.6,49.8,29.89,ESE,117,4.0,14.0,87,0.00,,,0.11,Wunderground v.1.15,2013-01-28 00:15:00,
2013-01-27 18:25:00,53.8,50.0,29.89,ESE,115,5.0,14.0,87,0.00,,,0.11,Wunderground v.1.15,2013-01-28 00:25:00,
2013-01-27 18:30:00,53.9,50.1,29.89,ESE,123,6.0,6.0,87,0.00,,,0.11,Wunderground v.1.15,2013-01-28 00:30:00,
2013-01-27 18:39:00,53.8,50.0,29.89,ESE,122,5.0,5.0,87,0.00,,,0.11,Wunderground v.1.15,2013-01-28 00:39:00,
2013-01-27 18:44:00,53.7,49.9,29.90,East,91,5.0,8.0,87,0.00,,,0.11,Wunderground v.1.15,2013-01-28 00:44:00,
2013-01-27 18:50:00,53.7,49.9,29.90,East,91,6.0,14.0,87,0.00,,,0.11,Wunderground v.1.15,2013-01-28 00:50:00,
2013-01-27 18:55:00,53.8,50.0,29.90,East,84,6.0,14.0,87,0.00,,,0.11,Wunderground v.1.15,2013-01-28 00:55:00,
2013-01-27 19:00:00,53.8,50.0,29.91,ESE,105,6.0,14.0,87,0.00,,,0.11,Wunderground v.1.15,2013-01-28 01:00:00,
2013-01-27 19:10:00,53.9,50.4,29.90,NE,52,6.0,6.0,88,0.00,,,0.11,Wunderground v.1.15,2013-01-28 01:10:00,
2013-01-27 19:15:00,53.9,50.4,29.91,ESE,105,6.0,14.0,88,0.00,,,0.11,Wunderground v.1.15,2013-01-28 01:15:00,
2013-01-27 19:20:00,54.0,50.5,29.90,SE,132,6.0,14.0,88,0.00,,,0.11,Wunderground v.1.15,2013-01-28 01:20:00,
2013-01-27 19:25:00,54.2,50.7,29.91,East,90,7.0,14.0,88,0.00,,,0.11,Wunderground v.1.15,2013-01-28 01:25:00,
2013-01-27 19:30:00,54.4,50.9,29.91,ENE,77,7.0,7.0,88,0.00,,,0.11,Wunderground v.1.15,2013-01-28 01:30:00,
2013-01-27 19:39:00,54.6,51.1,29.91,ESE,120,5.0,5.0,88,0.00,,,0.11,Wunderground v.1.15,2013-01-28 01:39:00,
2013-01-27 19:44:00,54.8,51.3,29.90,SE,133,5.0,14.0,88,0.00,,,0.11,Wunderground v.1.15,2013-01-28 01:44:00,
2013-01-27 19:50:00,55.0,51.2,29.90,ENE,58,6.0,14.0,87,0.00,,,0.11,Wunderground v.1.15,2013-01-28 01:50:00,
2013-01-27 19:55:00,55.1,51.3,29.90,ESE,108,6.0,14.0,87,0.00,,,0.11,Wunderground v.1.15,2013-01-28 01:55:00,
2013-01-27 20:00:00,55.1,51.3,29.90,ESE,108,5.0,5.0,87,0.00,,,0.11,Wunderground v.1.15,2013-01-28 02:00:00,
2013-01-27 20:10:00,55.4,51.6,29.90,East,94,6.0,6.0,87,0.00,,,0.11,Wunderground v.1.15,2013-01-28 02:10:00,
2013-01-27 20:15:00,55.5,51.7,29.90,North,352,5.0,14.0,87,0.00,,,0.11,Wunderground v.1.15,2013-01-28 02:15:00,
2013-01-27 20:20:00,55.6,51.8,29.90,ENE,58,5.0,5.0,87,0.00,,,0.11,Wunderground v.1.15,2013-01-28 02:20:00,
2013-01-27 20:25:00,55.5,51.7,29.90,East,98,4.0,14.0,87,0.00,,,0.11,Wunderground v.1.15,2013-01-28 02:25:00,
2013-01-27 20:30:00,55.6,51.8,29.90,ESE,105,4.0,4.0,87,0.00,,,0.11,Wunderground v.1.15,2013-01-28 02:30:00,
2013-01-27 20:35:00,55.7,51.9,29.90,ESE,113,4.0,14.0,87,0.00,,,0.11,Wunderground v.1.15,2013-01-28 02:35:00,
2013-01-27 20:44:00,56.1,52.3,29.90,NE,41,4.0,14.0,87,0.00,,,0.11,Wunderground v.1.15,2013-01-28 02:44:00,
2013-01-27 20:50:00,56.3,52.2,29.90,West,264,5.0,14.0,86,0.00,,,0.11,Wunderground v.1.15,2013-01-28 02:50:00,
2013-01-27 20:55:00,56.5,52.4,29.90,ESE,115,5.0,14.0,86,0.00,,,0.11,Wunderground v.1.15,2013-01-28 02:55:00,
2013-01-27 21:00:00,56.6,52.5,29.90,ESE,120,5.0,14.0,86,0.00,,,0.11,Wunderground v.1.15,2013-01-28 03:00:00,
2013-01-27 21:05:00,56.7,52.6,29.90,East,85,5.0,14.0,86,0.00,,,0.11,Wunderground v.1.15,2013-01-28 03:05:00,
2013-01-27 21:15:00,57.1,53.0,29.90,ESE,117,5.0,14.0,86,0.00,,,0.11,Wunderground v.1.15,2013-01-28 03:15:00,
2013-01-27 21:20:00,57.2,53.0,29.90,ESE,123,5.0,5.0,86,0.00,,,0.11,Wunderground v.1.15,2013-01-28 03:20:00,
2013-01-27 21:25:00,57.4,53.2,29.90,SE,127,6.0,8.0,86,0.00,,,0.11,Wunderground v.1.15,2013-01-28 03:25:00,
2013-01-27 21:30:00,57.6,53.1,29.90,East,86,6.0,14.0,85,0.00,,,0.11,Wunderground v.1.15,2013-01-28 03:30:00,
2013-01-27 21:35:00,57.7,53.2,29.90,SE,129,6.0,14.0,85,0.00,,,0.11,Wunderground v.1.15,2013-01-28 03:35:00,
2013-01-27 21:44:00,58.0,53.2,29.91,ESE,104,7.0,14.0,84,0.00,,,0.11,Wunderground v.1.15,2013-01-28 03:44:00,
2013-01-27 21:50:00,58.0,53.2,29.90,ENE,68,5.0,14.0,84,0.00,,,0.11,Wunderground v.1.15,2013-01-28 03:50:00,
2013-01-27 21:55:00,58.1,53.3,29.90,SE,133,6.0,14.0,84,0.00,,,0.11,Wunderground v.1.15,2013-01-28 03:55:00,
2013-01-27 22:00:00,58.2,53.4,29.91,East,100,6.0,6.0,84,0.00,,,0.11,Wunderground v.1.15,2013-01-28 04:00:00,
2013-01-27 22:10:00,58.2,53.4,29.91,ESE,117,4.0,14.0,84,0.00,,,0.11,Wunderground v.1.15,2013-01-28 04:10:00,
2013-01-27 22:15:00,58.3,53.5,29.91,ESE,104,5.0,14.0,84,0.00,,,0.11,Wunderground v.1.15,2013-01-28 04:15:00,
2013-01-27 22:20:00,58.3,53.5,29.91,East,86,5.0,5.0,84,0.00,,,0.11,Wunderground v.1.15,2013-01-28 04:20:00,
2013-01-27 22:25:00,58.4,53.6,29.91,ENE,77,5.0,14.0,84,0.00,,,0.11,Wunderground v.1.15,2013-01-28 04:25:00,
2013-01-27 22:30:00,58.4,53.6,29.91,East,101,5.0,5.0,84,0.00,,,0.11,Wunderground v.1.15,2013-01-28 04:30:00,
2013-01-27 22:35:00,58.4,53.6,29.91,SE,132,5.0,14.0,84,0.00,,,0.11,Wunderground v.1.15,2013-01-28 04:35:00,
2013-01-27 22:40:00,58.4,53.6,29.91,East,101,4.0,14.0,84,0.00,,,0.11,Wunderground v.1.15,2013-01-28 04:40:00,
2013-01-27 22:50:00,58.4,53.9,29.91,ESE,105,4.0,14.0,85,0.00,,,0.11,Wunderground v.1.15,2013-01-28 04:50:00,
2013-01-27 22:55:00,58.4,53.9,29.91,East,97,4.0,14.0,85,0.00,,,0.11,Wunderground v.1.15,2013-01-28 04:55:00,
2013-01-27 23:00:00,58.5,54.0,29.91,East,87,6.0,14.0,85,0.00,,,0.11,Wunderground v.1.15,2013-01-28 05:00:00,
2013-01-27 23:05:00,58.6,54.1,29.91,East,98,7.0,14.0,85,0.00,,,0.11,Wunderground v.1.15,2013-01-28 05:05:00,
2013-01-27 23:10:00,58.6,54.1,29.91,ESE,108,5.0,5.0,85,0.00,,,0.11,Wunderground v.1.15,2013-01-28 05:10:00,
2013-01-27 23:15:00,58.5,54.0,29.91,ESE,103,3.0,6.0,85,0.00,,,0.11,Wunderground v.1.15,2013-01-28 05:15:00,
2013-01-27 23:20:00,58.5,54.0,29.91,East,89,4.0,14.0,85,0.00,,,0.11,Wunderground v.1.15,2013-01-28 05:20:00,
2013-01-27 23:25:00,58.6,54.1,29.91,East,94,5.0,14.0,85,0.00,,,0.11,Wunderground v.1.15,2013-01-28 05:25:00,
2013-01-27 23:30:00,58.5,54.0,29.91,ESE,116,4.0,14.0,85,0.00,,,0.11,Wunderground v.1.15,2013-01-28 05:30:00,
2013-01-27 23:35:00,58.4,53.9,29.90,ESE,117,4.0,14.0,85,0.00,,,0.11,Wunderground v.1.15,2013-01-28 05:35:00,
2013-01-27 23:40:00,58.5,54.3,29.91,ESE,110,5.0,5.0,86,0.00,,,0.11,Wunderground v.1.15,2013-01-28 05:40:00,
2013-01-27 23:50:00,58.5,54.3,29.91,SE,132,6.0,6.0,86,0.00,,,0.11,Wunderground v.1.15,2013-01-28 05:50:00,
2013-01-27 23:55:00,58.5,54.3,29.90,SSE,155,5.0,14.0,86,0.00,,,0.11,Wunderground v.1.15,2013-01-28 05:55:00,